Location: North Evanston
(42.0634°N, 87.6976°W)
Time: 10:48:18
(UTC+00:00)

Injun/Solrad 3 - Pass Details

Date: 14 May 2026
Orbit: 867 x 989 km, 66.8° (Epoch: 11 June)

Event Time Altitude Azimuth Distance (km) Brightness Sun altitude
Rises 05:20:24 0° 335° (NNW) 3,674 12.1 -29.0°
Reaches altitude 10° 05:23:17 10° 345° (NNW) 2,737 11.3 -29.0°
Maximum altitude 05:28:56 32° 47° (NE) 1,639 9.4 -29.2°
Enters shadow 05:32:12 21° 93° (E) 2,073 9.6 -29.2°
Drops below altitude 10° 05:34:37 10° 109° (ESE) 2,745 - -29.2°
Sets 05:37:29 0° 119° (ESE) 3,686 - -29.3°
